Precipitable_Water
0.41 0.42 0.41 0.41 0.43 0.45 0.44 0.44 0.43 0.43 0.43 0.41 0.40 0.38 0.38 0.38 0.37 0.36 0.36 0.36 0.36 0.35 0.36 0.35 0.36 0.38 0.41 0.44 0.45 0.46 0.47 0.37 0.30 0.27 0.29 0.28 0.41 0.53 0.59 0.59 0.53 0.48 0.52 0.39 0.36 0.47 0.41 0.47 0.58 0.90 1.02 1.11 1.11 1.10 1.29 1.36 1.44 1.45 1.14 1.11 1.03 1.13 1.10 1.24 1.26 1.34 1.45 1.41 1.50 1.56 1.69 1.55 1.42 1.71 1.77 1.97 1.77 1.63 1.63 1.61 1.68 1.70 1.64 1.67 1.62 1.65 1.65 1.67
0.40 0.40 0.40 0.42 0.43 0.44 0.45 0.45 0.43 0.43 0.42 0.41 0.40 0.40 0.39 0.38 0.37 0.36 0.35 0.35 0.34 0.34 0.34 0.36 0.35 0.36 0.39 0.42 0.44 0.46 0.42 0.37 0.28 0.30 0.25 0.41 0.54 0.59 0.61 0.61 0.57 0.50 0.48 0.34 0.32 0.40 0.41 0.41 0.55 0.85 0.90 0.91 1.24 1.08 1.22 1.16 1.32 1.16 1.07 1.09 0.96 1.14 1.21 1.32 1.37 1.41 1.39 1.41 1.53 1.61 1.67 1.60 1.56 1.75 1.82 1.59 1.52 1.53 1.45 1.51 1.61 1.56 1.66 1.73 1.62 1.61 1.58 1.59
0.39 0.40 0.40 0.40 0.41 0.42 0.43 0.43 0.42 0.43 0.41 0.41 0.40 0.40 0.39 0.39 0.38 0.37 0.36 0.35 0.34 0.33 0.32 0.34 0.36 0.35 0.38 0.42 0.43 0.44 0.41 0.35 0.34 0.27 0.41 0.44 0.49 0.61 0.67 0.60 0.56 0.49 0.39 0.30 0.32 0.44 0.49 0.51 0.66 0.81 0.83 0.90 1.05 0.98 1.06 1.09 1.19 1.20 1.02 0.96 1.04 1.21 1.29 1.35 1.46 1.43 1.50 1.49 1.46 1.48 1.60 1.60 1.66 1.59 1.69 1.47 1.45 1.48 1.39 1.40 1.50 1.48 1.49 1.54 1.52 1.57 1.54 1.54
0.39 0.39 0.39 0.39 0.41 0.43 0.44 0.43 0.42 0.42 0.41 0.41 0.40 0.39 0.39 0.39 0.38 0.37 0.36 0.35 0.35 0.33 0.33 0.34 0.35 0.35 0.37 0.41 0.45 0.43 0.39 0.32 0.35 0.52 0.77 0.77 0.67 0.63 0.60 0.58 0.57 0.52 0.41 0.33 0.34 0.50 0.74 0.84 0.83 0.84 0.84 0.85 0.98 0.95 0.94 1.04 0.98 1.22 1.06 0.93 1.01 1.21 1.17 1.35 1.44 1.48 1.55 1.56 1.54 1.53 1.64 1.58 1.63 1.63 1.61 1.54 1.43 1.46 1.46 1.54 1.48 1.44 1.48 1.49 1.50 1.52 1.51 1.50
0.39 0.38 0.38 0.38 0.39 0.41 0.43 0.42 0.42 0.41 0.41 0.40 0.39 0.39 0.38 0.38 0.38 0.36 0.35 0.34 0.34 0.33 0.33 0.34 0.34 0.35 0.39 0.42 0.41 0.43 0.30 0.27 0.43 0.67 0.84 0.77 0.73 0.70 0.64 0.62 0.62 0.54 0.40 0.32 0.36 0.55 0.58 0.72 0.87 0.86 0.87 0.80 0.84 0.87 0.85 0.98 1.00 1.05 1.02 1.11 1.14 1.21 1.15 1.34 1.42 1.46 1.51 1.64 1.55 1.57 1.50 1.46 1.68 1.64 1.55 1.54 1.33 1.36 1.48 1.59 1.63 1.60 1.54 1.48 1.48 1.49 1.49 1.47
0.39 0.39 0.38 0.38 0.38 0.40 0.42 0.42 0.41 0.40 0.40 0.40 0.40 0.38 0.38 0.37 0.38 0.36 0.35 0.35 0.34 0.34 0.33 0.34 0.36 0.37 0.40 0.43 0.43 0.42 0.27 0.15 0.53 0.61 0.68 0.61 0.59 0.61 0.62 0.61 0.61 0.56 0.43 0.28 0.33 0.50 0.57 0.64 0.73 0.82 0.77 0.80 0.79 0.68 0.83 0.88 1.00 0.81 0.92 0.91 1.09 1.17 1.13 1.28 1.39 1.43 1.51 1.49 1.53 1.46 1.59 1.62 1.56 1.55 1.60 1.54 1.41 1.50 1.71 1.75 1.68 1.64 1.60 1.56 1.57 1.48 1.43 1.44
0.40 0.39 0.39 0.38 0.38 0.39 0.42 0.42 0.41 0.41 0.40 0.39 0.39 0.38 0.37 0.37 0.37 0.35 0.34 0.35 0.35 0.34 0.34 0.36 0.38 0.40 0.41 0.45 0.45 0.35 0.19 0.22 0.53 0.65 0.72 0.53 0.56 0.65 0.65 0.62 0.65 0.58 0.45 0.27 0.34 0.45 0.53 0.59 0.67 0.74 0.76 0.73 0.77 0.73 0.80 0.86 0.91 0.82 0.78 0.88 1.12 1.17 1.15 1.29 1.25 1.39 1.47 1.47 1.45 1.62 1.70 1.49 1.51 1.40 1.66 1.54 1.55 1.68 1.74 1.79 1.74 1.71 1.66 1.61 1.49 1.48 1.44 1.44
0.41 0.40 0.40 0.39 0.38 0.38 0.41 0.42 0.41 0.41 0.41 0.40 0.40 0.38 0.37 0.37 0.36 0.34 0.34 0.35 0.37 0.37 0.39 0.39 0.42 0.42 0.44 0.37 0.29 0.26 0.34 0.34 0.48 0.60 0.64 0.65 0.61 0.58 0.68 0.64 0.61 0.57 0.42 0.28 0.36 0.43 0.55 0.57 0.58 0.73 0.73 0.63 0.67 0.64 0.77 0.75 0.78 0.75 0.71 0.76 0.87 0.95 0.98 1.13 1.25 1.28 1.38 1.45 1.54 1.57 1.49 1.47 1.57 1.54 1.61 1.50 1.62 1.69 1.73 1.77 1.76 1.71 1.65 1.59 1.52 1.47 1.45 1.44
0.43 0.43 0.41 0.40 0.39 0.38 0.40 0.42 0.42 0.41 0.41 0.41 0.39 0.38 0.37 0.37 0.35 0.33 0.33 0.36 0.38 0.41 0.42 0.43 0.41 0.45 0.48 0.35 0.22 0.21 0.30 0.54 0.53 0.62 0.64 0.70 0.62 0.58 0.62 0.56 0.64 0.52 0.40 0.34 0.42 0.52 0.57 0.57 0.62 0.68 0.58 0.53 0.69 0.65 0.66 0.62 0.59 0.68 0.71 0.75 0.76 0.87 0.97 1.07 1.17 1.25 1.30 1.37 1.43 1.39 1.44 1.54 1.61 1.67 1.50 1.56 1.62 1.65 1.74 1.74 1.70 1.65 1.58 1.55 1.51 1.49 1.45 1.43
0.45 0.45 0.44 0.42 0.41 0.39 0.40 0.42 0.43 0.41 0.41 0.40 0.39 0.38 0.38 0.36 0.35 0.34 0.33 0.36 0.38 0.41 0.42 0.43 0.45 0.44 0.39 0.32 0.32 0.27 0.36 0.50 0.51 0.63 0.63 0.73 0.66 0.55 0.54 0.60 0.60 0.52 0.38 0.36 0.47 0.55 0.49 0.62 0.66 0.72 0.70 0.66 0.72 0.63 0.62 0.56 0.55 0.63 0.63 0.70 0.69 0.73 0.90 1.03 1.04 1.15 1.29 1.26 1.38 1.28 1.37 1.42 1.60 1.49 1.30 1.57 1.60 1.62 1.65 1.64 1.69 1.61 1.53 1.54 1.52 1.52 1.50 1.45
0.48 0.46 0.45 0.44 0.43 0.42 0.41 0.43 0.44 0.43 0.41 0.40 0.39 0.37 0.37 0.37 0.36 0.35 0.33 0.36 0.40 0.41 0.41 0.43 0.48 0.44 0.29 0.35 0.23 0.31 0.46 0.44 0.49 0.49 0.44 0.58 0.56 0.48 0.44 0.60 0.61 0.51 0.41 0.41 0.48 0.57 0.59 0.64 0.73 0.72 0.67 0.59 0.60 0.56 0.56 0.54 0.57 0.54 0.54 0.51 0.53 0.77 0.80 0.90 1.04 1.08 1.23 1.21 1.34 1.36 1.30 1.40 1.45 1.46 1.33 1.49 1.63 1.64 1.57 1.58 1.58 1.53 1.53 1.56 1.54 1.53 1.53 1.50
0.51 0.49 0.47 0.46 0.45 0.43 0.43 0.44 0.45 0.45 0.44 0.41 0.39 0.38 0.37 0.37 0.37 0.35 0.33 0.36 0.41 0.47 0.49 0.49 0.51 0.43 0.40 0.33 0.24 0.43 0.49 0.35 0.35 0.37 0.43 0.39 0.46 0.39 0.51 0.59 0.57 0.52 0.42 0.42 0.51 0.56 0.64 0.65 0.73 0.67 0.48 0.63 0.41 0.49 0.46 0.52 0.49 0.49 0.50 0.40 0.46 0.60 0.64 0.90 0.90 0.95 1.04 1.05 1.21 1.31 1.28 1.22 1.28 1.21 1.43 1.53 1.61 1.60 1.57 1.53 1.54 1.50 1.53 1.54 1.56 1.57 1.52 1.53
0.54 0.52 0.50 0.48 0.46 0.45 0.45 0.44 0.46 0.46 0.45 0.43 0.41 0.39 0.37 0.37 0.36 0.35 0.35 0.35 0.43 0.48 0.53 0.54 0.50 0.51 0.43 0.33 0.44 0.50 0.44 0.31 0.34 0.35 0.34 0.35 0.46 0.48 0.49 0.55 0.55 0.52 0.45 0.44 0.42 0.49 0.55 0.61 0.68 0.61 0.64 0.55 0.54 0.40 0.45 0.40 0.37 0.43 0.41 0.38 0.40 0.49 0.51 0.74 0.82 0.96 0.96 1.00 1.10 1.08 0.77 0.98 1.17 1.29 1.41 1.53 1.54 1.54 1.50 1.49 1.49 1.49 1.51 1.52 1.53 1.54 1.52 1.59
0.56 0.53 0.51 0.49 0.48 0.47 0.46 0.46 0.46 0.47 0.46 0.44 0.42 0.40 0.38 0.37 0.35 0.35 0.36 0.37 0.42 0.47 0.54 0.58 0.54 0.51 0.47 0.35 0.45 0.34 0.32 0.30 0.32 0.29 0.28 0.32 0.36 0.50 0.41 0.57 0.58 0.53 0.48 0.46 0.50 0.56 0.59 0.67 0.65 0.62 0.65 0.54 0.49 0.58 0.46 0.40 0.39 0.27 0.34 0.37 0.34 0.36 0.38 0.51 0.53 0.88 0.80 1.03 1.08 1.00 0.70 0.85 1.08 1.29 1.40 1.48 1.56 1.47 1.40 1.44 1.43 1.45 1.48 1.47 1.51 1.51 1.46 1.50
0.56 0.53 0.51 0.50 0.48 0.48 0.47 0.46 0.46 0.47 0.48 0.46 0.43 0.41 0.40 0.36 0.34 0.35 0.38 0.37 0.43 0.49 0.55 0.62 0.58 0.50 0.43 0.52 0.60 0.43 0.36 0.41 0.32 0.34 0.33 0.30 0.29 0.43 0.40 0.51 0.62 0.56 0.52 0.57 0.61 0.79 0.89 0.81 0.64 0.54 0.49 0.59 0.56 0.46 0.37 0.35 0.35 0.32 0.25 0.24 0.29 0.29 0.34 0.44 0.49 0.60 0.66 0.95 1.01 0.91 0.75 0.80 0.98 1.21 1.37 1.46 1.50 1.47 1.36 1.38 1.42 1.43 1.43 1.43 1.44 1.45 1.42 1.45
0.55 0.52 0.51 0.50 0.49 0.48 0.47 0.46 0.46 0.48 0.48 0.47 0.44 0.42 0.40 0.39 0.35 0.36 0.39 0.38 0.41 0.49 0.53 0.49 0.60 0.60 0.50 0.33 0.59 0.47 0.35 0.29 0.25 0.31 0.33 0.25 0.25 0.30 0.48 0.47 0.54 0.64 0.62 0.65 0.81 0.87 0.87 0.78 0.55 0.49 0.47 0.48 0.42 0.37 0.33 0.30 0.28 0.28 0.21 0.21 0.22 0.25 0.28 0.32 0.42 0.49 0.56 0.82 0.92 0.87 0.77 0.86 0.97 1.19 1.32 1.44 1.45 1.42 1.36 1.36 1.39 1.41 1.37 1.41 1.42 1.43 1.42 1.43
0.53 0.53 0.51 0.50 0.49 0.47 0.46 0.45 0.46 0.48 0.48 0.46 0.46 0.42 0.43 0.43 0.38 0.39 0.40 0.42 0.45 0.54 0.48 0.36 0.53 0.65 0.37 0.37 0.50 0.34 0.26 0.24 0.25 0.28 0.28 0.27 0.24 0.29 0.39 0.49 0.41 0.51 0.61 0.66 0.75 0.78 0.76 0.63 0.61 0.48 0.45 0.37 0.39 0.36 0.27 0.22 0.20 0.21 0.22 0.18 0.22 0.22 0.26 0.25 0.37 0.44 0.53 0.77 0.75 0.91 0.84 0.87 0.99 1.17 1.31 1.39 1.41 1.37 1.31 1.32 1.36 1.40 1.38 1.39 1.40 1.42 1.41 1.40
0.51 0.50 0.50 0.50 0.49 0.47 0.46 0.45 0.45 0.48 0.48 0.47 0.46 0.44 0.42 0.48 0.55 0.50 0.44 0.44 0.51 0.62 0.70 0.61 0.55 0.55 0.47 0.51 0.28 0.26 0.26 0.21 0.18 0.20 0.26 0.30 0.28 0.30 0.36 0.49 0.45 0.44 0.51 0.52 0.66 0.58 0.63 0.51 0.53 0.39 0.38 0.34 0.34 0.31 0.21 0.14 0.17 0.17 0.18 0.19 0.19 0.18 0.24 0.26 0.29 0.42 0.45 0.70 0.73 0.81 0.83 0.86 0.97 1.12 1.24 1.30 1.36 1.33 1.27 1.30 1.33 1.40 1.40 1.39 1.43 1.42 1.42 1.38
0.52 0.51 0.51 0.49 0.49 0.47 0.46 0.45 0.45 0.48 0.49 0.49 0.49 0.47 0.48 0.53 0.57 0.59 0.41 0.44 0.38 0.47 0.54 0.45 0.39 0.38 0.18 0.26 0.30 0.28 0.25 0.21 0.23 0.26 0.27 0.31 0.28 0.29 0.36 0.51 0.53 0.41 0.37 0.39 0.47 0.46 0.53 0.44 0.45 0.36 0.29 0.28 0.27 0.29 0.25 0.24 0.24 0.20 0.21 0.23 0.23 0.20 0.21 0.21 0.27 0.41 0.45 0.56 0.68 0.73 0.75 0.85 0.93 1.03 1.17 1.27 1.33 1.29 1.31 1.34 1.37 1.42 1.41 1.43 1.43 1.41 1.44 1.39
0.52 0.52 0.52 0.52 0.50 0.48 0.46 0.45 0.46 0.47 0.50 0.47 0.43 0.41 0.38 0.28 0.33 0.39 0.39 0.36 0.30 0.37 0.39 0.38 0.36 0.33 0.28 0.22 0.25 0.26 0.28 0.24 0.20 0.24 0.25 0.33 0.27 0.21 0.26 0.39 0.45 0.42 0.38 0.28 0.39 0.38 0.48 0.32 0.29 0.27 0.27 0.31 0.34 0.31 0.30 0.32 0.29 0.26 0.24 0.21 0.20 0.20 0.23 0.26 0.25 0.39 0.43 0.48 0.62 0.71 0.78 0.91 0.93 1.04 1.13 1.22 1.30 1.27 1.28 1.29 1.35 1.40 1.39 1.42 1.41 1.38 1.42 1.40
0.51 0.52 0.52 0.53 0.52 0.50 0.47 0.47 0.49 0.48 0.51 0.49 0.46 0.38 0.25 0.25 0.21 0.21 0.30 0.28 0.26 0.26 0.27 0.30 0.27 0.20 0.22 0.20 0.22 0.21 0.18 0.19 0.21 0.25 0.32 0.32 0.29 0.24 0.27 0.32 0.38 0.31 0.36 0.39 0.33 0.45 0.39 0.30 0.28 0.31 0.33 0.33 0.37 0.38 0.34 0.28 0.28 0.25 0.24 0.23 0.22 0.22 0.20 0.22 0.23 0.37 0.41 0.51 0.60 0.72 0.76 0.86 0.91 1.02 1.14 1.23 1.20 1.20 1.22 1.25 1.30 1.35 1.38 1.45 1.43 1.41 1.45 1.45
0.51 0.51 0.51 0.52 0.53 0.52 0.50 0.51 0.52 0.52 0.53 0.52 0.46 0.35 0.33 0.33 0.36 0.36 0.28 0.17 0.24 0.24 0.24 0.25 0.21 0.17 0.18 0.19 0.20 0.18 0.14 0.17 0.20 0.25 0.31 0.28 0.27 0.29 0.36 0.30 0.33 0.30 0.33 0.36 0.36 0.34 0.31 0.26 0.30 0.35 0.37 0.39 0.37 0.35 0.35 0.30 0.24 0.21 0.21 0.22 0.21 0.21 0.23 0.23 0.25 0.29 0.39 0.41 0.57 0.66 0.67 0.76 0.88 0.95 1.08 1.08 1.09 1.18 1.27 1.29 1.28 1.31 1.35 1.42 1.43 1.44 1.50 1.48
0.54 0.52 0.52 0.52 0.53 0.53 0.51 0.54 0.54 0.55 0.53 0.48 0.42 0.42 0.35 0.39 0.43 0.43 0.35 0.25 0.19 0.23 0.23 0.21 0.16 0.15 0.17 0.19 0.18 0.15 0.12 0.13 0.16 0.27 0.32 0.31 0.32 0.36 0.39 0.31 0.29 0.30 0.33 0.32 0.25 0.28 0.26 0.29 0.33 0.37 0.38 0.36 0.35 0.33 0.29 0.27 0.26 0.22 0.20 0.19 0.19 0.22 0.20 0.19 0.24 0.27 0.34 0.37 0.41 0.59 0.62 0.75 0.89 0.97 0.99 1.05 1.05 1.16 1.28 1.30 1.30 1.35 1.36 1.39 1.42 1.45 1.48 1.48
0.55 0.54 0.54 0.54 0.55 0.53 0.53 0.52 0.57 0.54 0.52 0.50 0.47 0.42 0.45 0.46 0.44 0.43 0.30 0.19 0.16 0.21 0.26 0.26 0.21 0.19 0.18 0.17 0.19 0.15 0.12 0.16 0.20 0.30 0.36 0.28 0.31 0.38 0.39 0.38 0.30 0.27 0.27 0.30 0.27 0.25 0.26 0.34 0.38 0.36 0.36 0.31 0.29 0.29 0.26 0.23 0.22 0.24 0.22 0.19 0.19 0.20 0.20 0.21 0.22 0.24 0.28 0.30 0.36 0.53 0.67 0.73 0.83 0.84 0.89 1.00 1.10 1.12 1.20 1.28 1.31 1.37 1.41 1.45 1.49 1.52 1.54 1.50
0.57 0.57 0.56 0.56 0.55 0.57 0.51 0.51 0.47 0.47 0.50 0.51 0.47 0.48 0.49 0.48 0.48 0.43 0.27 0.22 0.22 0.19 0.27 0.27 0.22 0.22 0.21 0.22 0.20 0.15 0.14 0.16 0.19 0.21 0.27 0.26 0.26 0.28 0.30 0.36 0.38 0.34 0.29 0.29 0.29 0.27 0.26 0.32 0.38 0.38 0.35 0.33 0.29 0.25 0.25 0.24 0.21 0.23 0.25 0.24 0.21 0.20 0.19 0.22 0.23 0.22 0.22 0.24 0.28 0.36 0.38 0.59 0.71 0.73 0.76 0.92 1.02 1.03 1.13 1.16 1.23 1.32 1.38 1.41 1.40 1.45 1.57 1.60
0.58 0.59 0.59 0.58 0.57 0.56 0.54 0.43 0.45 0.50 0.50 0.46 0.47 0.51 0.50 0.51 0.50 0.40 0.28 0.18 0.12 0.24 0.26 0.19 0.25 0.20 0.24 0.19 0.16 0.14 0.15 0.14 0.19 0.23 0.22 0.23 0.22 0.23 0.25 0.28 0.35 0.33 0.37 0.35 0.30 0.29 0.28 0.31 0.30 0.32 0.34 0.32 0.30 0.27 0.26 0.26 0.22 0.21 0.24 0.29 0.25 0.22 0.19 0.19 0.21 0.21 0.19 0.20 0.26 0.34 0.29 0.31 0.70 0.68 0.75 0.85 0.90 0.94 1.06 1.09 1.18 1.29 1.33 1.34 1.34 1.40 1.46 1.53
0.60 0.61 0.61 0.60 0.59 0.60 0.44 0.37 0.49 0.51 0.44 0.46 0.53 0.52 0.50 0.49 0.51 0.38 0.27 0.19 0.12 0.24 0.20 0.25 0.20 0.22 0.26 0.19 0.19 0.18 0.13 0.15 0.20 0.23 0.23 0.24 0.17 0.20 0.17 0.24 0.27 0.31 0.35 0.35 0.29 0.27 0.31 0.29 0.29 0.29 0.31 0.30 0.30 0.27 0.27 0.27 0.23 0.20 0.28 0.30 0.30 0.26 0.21 0.18 0.20 0.21 0.20 0.24 0.25 0.26 0.27 0.29 0.42 0.62 0.72 0.81 0.84 0.88 0.94 1.00 1.14 1.26 1.30 1.30 1.29 1.34 1.38 1.47
0.65 0.65 0.64 0.64 0.61 0.61 0.51 0.54 0.50 0.43 0.47 0.55 0.57 0.54 0.52 0.50 0.46 0.41 0.24 0.11 0.14 0.28 0.20 0.21 0.23 0.27 0.25 0.22 0.21 0.18 0.17 0.22 0.18 0.23 0.28 0.27 0.20 0.21 0.16 0.19 0.19 0.21 0.26 0.27 0.22 0.34 0.32 0.29 0.28 0.27 0.27 0.27 0.26 0.30 0.32 0.29 0.24 0.25 0.30 0.30 0.28 0.28 0.27 0.24 0.19 0.19 0.21 0.20 0.20 0.23 0.25 0.23 0.28 0.54 0.81 0.82 0.78 0.82 0.86 0.93 1.01 1.10 1.21 1.28 1.28 1.33 1.39 1.45
0.67 0.66 0.65 0.65 0.63 0.61 0.66 0.59 0.55 0.47 0.56 0.62 0.58 0.54 0.51 0.50 0.42 0.29 0.22 0.15 0.28 0.25 0.36 0.24 0.35 0.28 0.26 0.26 0.22 0.20 0.19 0.19 0.16 0.24 0.27 0.26 0.25 0.19 0.13 0.17 0.19 0.21 0.24 0.24 0.21 0.26 0.33 0.36 0.35 0.33 0.28 0.24 0.27 0.31 0.32 0.32 0.25 0.27 0.32 0.32 0.31 0.29 0.28 0.24 0.20 0.17 0.20 0.19 0.19 0.21 0.23 0.19 0.21 0.46 0.57 0.71 0.66 0.69 0.78 0.88 0.95 1.04 1.13 1.19 1.22 1.28 1.40 1.47
0.67 0.66 0.65 0.66 0.61 0.58 0.64 0.66 0.59 0.61 0.62 0.62 0.59 0.53 0.51 0.46 0.34 0.24 0.14 0.11 0.29 0.21 0.26 0.28 0.25 0.23 0.23 0.20 0.20 0.20 0.18 0.19 0.18 0.22 0.22 0.20 0.22 0.22 0.20 0.19 0.18 0.19 0.20 0.23 0.23 0.25 0.30 0.33 0.35 0.31 0.29 0.30 0.29 0.31 0.32 0.31 0.30 0.33 0.32 0.28 0.27 0.26 0.26 0.25 0.22 0.20 0.17 0.15 0.19 0.23 0.22 0.20 0.18 0.29 0.59 0.52 0.59 0.64 0.74 0.83 0.95 1.07 1.14 1.19 1.20 1.23 1.34 1.42
0.67 0.66 0.65 0.67 0.54 0.56 0.54 0.47 0.54 0.64 0.66 0.62 0.56 0.52 0.48 0.39 0.26 0.22 0.19 0.20 0.25 0.26 0.29 0.26 0.23 0.26 0.22 0.20 0.19 0.21 0.21 0.22 0.20 0.20 0.18 0.19 0.18 0.18 0.19 0.16 0.16 0.13 0.16 0.19 0.18 0.20 0.25 0.27 0.29 0.33 0.37 0.38 0.34 0.30 0.32 0.31 0.30 0.29 0.27 0.24 0.23 0.22 0.25 0.22 0.20 0.20 0.14 0.12 0.17 0.22 0.22 0.21 0.17 0.23 0.36 0.64 0.75 0.70 0.69 0.73 0.82 0.95 1.02 1.09 1.16 1.20 1.29 1.38
0.65 0.65 0.66 0.64 0.63 0.65 0.47 0.45 0.55 0.66 0.64 0.59 0.52 0.45 0.41 0.26 0.26 0.21 0.29 0.36 0.23 0.27 0.27 0.26 0.28 0.26 0.22 0.22 0.20 0.21 0.19 0.21 0.20 0.18 0.16 0.16 0.16 0.16 0.19 0.14 0.14 0.13 0.11 0.10 0.08 0.10 0.09 0.21 0.26 0.28 0.35 0.38 0.36 0.29 0.30 0.30 0.29 0.27 0.25 0.24 0.20 0.19 0.19 0.15 0.16 0.13 0.13 0.13 0.17 0.15 0.18 0.18 0.17 0.21 0.28 0.38 0.44 0.69 0.69 0.70 0.76 0.85 0.94 1.02 1.11 1.19 1.25 1.33
0.64 0.63 0.66 0.65 0.66 0.60 0.59 0.59 0.62 0.64 0.64 0.58 0.47 0.45 0.34 0.27 0.23 0.31 0.29 0.30 0.23 0.29 0.26 0.29 0.25 0.25 0.23 0.19 0.19 0.21 0.22 0.17 0.20 0.19 0.17 0.18 0.17 0.21 0.25 0.22 0.24 0.21 0.16 0.23 0.19 0.19 0.17 0.12 0.21 0.25 0.29 0.33 0.37 0.28 0.26 0.24 0.26 0.24 0.23 0.23 0.20 0.16 0.14 0.12 0.14 0.15 0.15 0.17 0.19 0.19 0.18 0.13 0.17 0.20 0.28 0.34 0.40 0.48 0.84 0.75 0.79 0.83 0.85 0.94 1.04 1.15 1.22 1.29
0.63 0.65 0.62 0.66 0.69 0.67 0.64 0.66 0.66 0.68 0.61 0.51 0.45 0.40 0.36 0.27 0.28 0.35 0.29 0.27 0.27 0.31 0.30 0.27 0.27 0.26 0.25 0.20 0.22 0.23 0.20 0.22 0.19 0.19 0.19 0.17 0.18 0.21 0.29 0.32 0.27 0.24 0.21 0.23 0.17 0.18 0.14 0.13 0.12 0.16 0.18 0.27 0.29 0.30 0.32 0.27 0.26 0.24 0.27 0.25 0.22 0.19 0.15 0.12 0.13 0.13 0.14 0.15 0.19 0.21 0.17 0.14 0.11 0.11 0.18 0.32 0.40 0.43 0.59 0.67 0.75 0.81 0.85 0.93 1.04 1.11 1.19 1.26
0.65 0.65 0.70 0.72 0.74 0.73 0.69 0.68 0.68 0.68 0.57 0.47 0.41 0.37 0.31 0.29 0.31 0.28 0.27 0.30 0.31 0.31 0.28 0.30 0.26 0.23 0.23 0.23 0.22 0.23 0.22 0.19 0.23 0.21 0.20 0.17 0.16 0.22 0.25 0.27 0.27 0.26 0.23 0.15 0.23 0.18 0.19 0.18 0.24 0.23 0.24 0.23 0.21 0.30 0.29 0.31 0.29 0.29 0.29 0.28 0.23 0.20 0.21 0.14 0.18 0.18 0.17 0.18 0.19 0.21 0.18 0.18 0.16 0.20 0.18 0.15 0.17 0.35 0.42 0.63 0.64 0.73 0.85 0.95 1.02 1.06 1.12 1.21
0.65 0.62 0.69 0.70 0.70 0.69 0.72 0.67 0.66 0.66 0.52 0.46 0.41 0.36 0.30 0.30 0.27 0.32 0.30 0.35 0.33 0.30 0.31 0.29 0.27 0.22 0.22 0.21 0.24 0.23 0.27 0.22 0.20 0.19 0.18 0.17 0.19 0.27 0.29 0.28 0.27 0.27 0.22 0.17 0.19 0.17 0.18 0.17 0.25 0.26 0.25 0.25 0.21 0.24 0.30 0.30 0.22 0.29 0.29 0.23 0.23 0.26 0.22 0.18 0.18 0.21 0.22 0.20 0.18 0.26 0.26 0.25 0.26 0.24 0.23 0.20 0.18 0.14 0.28 0.47 0.58 0.62 0.72 0.83 0.92 1.00 1.10 1.22
0.61 0.69 0.62 0.68 0.70 0.60 0.63 0.66 0.61 0.55 0.56 0.48 0.40 0.34 0.38 0.37 0.36 0.34 0.36 0.33 0.34 0.34 0.31 0.23 0.25 0.24 0.22 0.23 0.23 0.24 0.24 0.23 0.22 0.19 0.17 0.18 0.22 0.32 0.28 0.29 0.31 0.29 0.28 0.24 0.20 0.21 0.15 0.16 0.25 0.25 0.23 0.29 0.31 0.27 0.27 0.31 0.27 0.32 0.26 0.28 0.31 0.29 0.24 0.21 0.17 0.19 0.18 0.17 0.19 0.25 0.24 0.27 0.23 0.19 0.24 0.23 0.20 0.19 0.17 0.28 0.56 0.62 0.72 0.80 0.88 0.95 1.07 1.20
0.67 0.69 0.69 0.61 0.61 0.58 0.57 0.56 0.59 0.57 0.53 0.47 0.38 0.39 0.45 0.33 0.39 0.37 0.39 0.37 0.36 0.34 0.30 0.25 0.25 0.26 0.25 0.24 0.24 0.25 0.26 0.21 0.20 0.21 0.18 0.18 0.24 0.35 0.28 0.27 0.30 0.29 0.29 0.29 0.22 0.20 0.17 0.12 0.21 0.26 0.26 0.29 0.29 0.28 0.25 0.31 0.34 0.27 0.28 0.36 0.26 0.22 0.18 0.21 0.19 0.16 0.16 0.16 0.18 0.22 0.24 0.24 0.29 0.24 0.24 0.24 0.24 0.23 0.24 0.27 0.48 0.62 0.73 0.80 0.88 0.94 1.03 1.15
0.73 0.71 0.60 0.59 0.64 0.57 0.56 0.60 0.59 0.53 0.47 0.40 0.38 0.37 0.36 0.34 0.40 0.38 0.37 0.36 0.33 0.33 0.28 0.27 0.24 0.26 0.25 0.24 0.23 0.26 0.25 0.20 0.22 0.21 0.19 0.21 0.22 0.31 0.28 0.29 0.27 0.28 0.27 0.28 0.24 0.24 0.21 0.12 0.17 0.24 0.25 0.27 0.27 0.27 0.22 0.26 0.32 0.32 0.34 0.30 0.32 0.30 0.26 0.23 0.22 0.20 0.21 0.19 0.19 0.19 0.20 0.20 0.28 0.32 0.29 0.28 0.28 0.26 0.26 0.27 0.48 0.60 0.74 0.78 0.86 0.93 1.02 1.12
0.67 0.62 0.52 0.65 0.66 0.61 0.64 0.62 0.54 0.51 0.45 0.37 0.39 0.36 0.41 0.36 0.33 0.32 0.32 0.33 0.30 0.29 0.28 0.27 0.27 0.23 0.24 0.25 0.26 0.22 0.23 0.22 0.22 0.22 0.22 0.24 0.21 0.31 0.27 0.30 0.26 0.25 0.27 0.27 0.25 0.26 0.21 0.18 0.10 0.20 0.24 0.26 0.22 0.26 0.26 0.29 0.29 0.33 0.29 0.27 0.28 0.29 0.34 0.32 0.30 0.25 0.21 0.17 0.18 0.20 0.20 0.20 0.26 0.32 0.35 0.35 0.29 0.30 0.30 0.31 0.57 0.66 0.71 0.75 0.85 0.94 1.02 1.08
0.73 0.60 0.53 0.60 0.60 0.60 0.62 0.54 0.47 0.42 0.42 0.41 0.40 0.37 0.38 0.35 0.35 0.32 0.31 0.31 0.29 0.32 0.29 0.28 0.27 0.23 0.25 0.24 0.23 0.25 0.22 0.22 0.22 0.22 0.23 0.24 0.26 0.21 0.28 0.28 0.29 0.27 0.26 0.24 0.24 0.25 0.20 0.20 0.13 0.14 0.18 0.20 0.23 0.28 0.30 0.31 0.31 0.30 0.30 0.27 0.29 0.27 0.26 0.24 0.24 0.31 0.27 0.24 0.20 0.19 0.17 0.24 0.26 0.34 0.34 0.40 0.46 0.37 0.32 0.31 0.55 0.69 0.68 0.71 0.79 0.91 0.97 0.98
0.61 0.46 0.41 0.55 0.59 0.61 0.54 0.44 0.41 0.45 0.40 0.38 0.35 0.37 0.35 0.38 0.32 0.32 0.31 0.30 0.29 0.26 0.29 0.28 0.27 0.27 0.26 0.25 0.26 0.25 0.23 0.22 0.23 0.23 0.24 0.23 0.26 0.25 0.29 0.31 0.29 0.28 0.24 0.23 0.25 0.30 0.27 0.24 0.17 0.12 0.14 0.18 0.23 0.27 0.29 0.31 0.31 0.30 0.29 0.28 0.30 0.28 0.30 0.27 0.23 0.28 0.31 0.29 0.30 0.28 0.22 0.19 0.36 0.37 0.41 0.39 0.42 0.41 0.33 0.34 0.36 0.61 0.68 0.75 0.84 0.92 0.96 0.98
0.54 0.49 0.53 0.59 0.60 0.59 0.51 0.41 0.41 0.40 0.35 0.37 0.41 0.38 0.38 0.35 0.34 0.34 0.30 0.30 0.29 0.26 0.26 0.27 0.27 0.26 0.27 0.26 0.25 0.25 0.24 0.20 0.23 0.23 0.22 0.25 0.26 0.28 0.30 0.30 0.30 0.27 0.28 0.27 0.27 0.28 0.27 0.20 0.18 0.17 0.16 0.18 0.21 0.24 0.26 0.27 0.28 0.29 0.30 0.30 0.28 0.28 0.35 0.33 0.30 0.33 0.30 0.29 0.26 0.28 0.22 0.21 0.35 0.40 0.41 0.41 0.50 0.53 0.41 0.38 0.40 0.60 0.70 0.81 0.88 0.94 0.96 0.97
0.57 0.58 0.56 0.57 0.57 0.53 0.46 0.34 0.36 0.35 0.33 0.34 0.34 0.33 0.36 0.33 0.30 0.29 0.28 0.29 0.27 0.27 0.27 0.27 0.27 0.28 0.25 0.27 0.26 0.23 0.24 0.18 0.24 0.23 0.23 0.26 0.26 0.31 0.34 0.31 0.30 0.27 0.30 0.30 0.25 0.30 0.20 0.26 0.20 0.15 0.13 0.09 0.11 0.16 0.20 0.25 0.27 0.31 0.32 0.35 0.38 0.36 0.35 0.39 0.37 0.36 0.28 0.31 0.32 0.29 0.25 0.24 0.34 0.44 0.49 0.56 0.54 0.65 0.69 0.45 0.44 0.43 0.71 0.95 1.10 1.04 1.07 1.01
0.59 0.65 0.63 0.53 0.54 0.50 0.39 0.39 0.38 0.35 0.33 0.34 0.33 0.30 0.33 0.31 0.33 0.30 0.30 0.28 0.28 0.27 0.26 0.26 0.27 0.27 0.24 0.26 0.25 0.24 0.25 0.24 0.21 0.26 0.27 0.26 0.28 0.32 0.34 0.32 0.34 0.30 0.33 0.37 0.36 0.33 0.24 0.23 0.21 0.15 0.12 0.09 0.06 0.08 0.15 0.21 0.24 0.26 0.31 0.33 0.34 0.34 0.34 0.34 0.30 0.33 0.26 0.32 0.33 0.30 0.30 0.34 0.42 0.50 0.58 0.65 0.64 0.68 0.77 0.80 0.66 0.55 0.46 0.45 0.78 1.07 1.05 1.00
0.49 0.41 0.45 0.47 0.56 0.47 0.43 0.45 0.42 0.38 0.35 0.34 0.32 0.30 0.31 0.29 0.32 0.33 0.31 0.30 0.27 0.28 0.27 0.27 0.28 0.27 0.26 0.25 0.24 0.24 0.26 0.27 0.23 0.24 0.24 0.25 0.28 0.31 0.33 0.34 0.34 0.32 0.34 0.38 0.38 0.32 0.24 0.24 0.22 0.21 0.19 0.16 0.16 0.20 0.29 0.30 0.26 0.21 0.21 0.26 0.30 0.33 0.37 0.37 0.36 0.32 0.28 0.32 0.31 0.34 0.36 0.34 0.36 0.45 0.51 0.58 0.80 0.76 0.76 0.79 0.78 0.81 0.86 0.94 0.63 0.77 1.08 1.04
0.59 0.39 0.43 0.38 0.51 0.45 0.41 0.41 0.39 0.38 0.34 0.34 0.33 0.35 0.28 0.28 0.31 0.31 0.30 0.26 0.27 0.24 0.27 0.26 0.27 0.23 0.24 0.21 0.23 0.24 0.25 0.24 0.28 0.25 0.26 0.24 0.27 0.30 0.34 0.34 0.34 0.34 0.35 0.34 0.36 0.29 0.24 0.19 0.21 0.21 0.20 0.20 0.21 0.21 0.24 0.25 0.22 0.22 0.20 0.19 0.25 0.31 0.34 0.35 0.32 0.30 0.35 0.29 0.26 0.37 0.40 0.35 0.36 0.46 0.50 0.55 0.77 0.79 0.84 0.80 0.92 0.93 0.97 0.91 0.82 0.83 0.82 0.91
0.43 0.43 0.49 0.50 0.42 0.36 0.36 0.32 0.39 0.38 0.37 0.36 0.32 0.35 0.27 0.29 0.28 0.25 0.30 0.30 0.29 0.31 0.28 0.29 0.31 0.29 0.30 0.26 0.25 0.22 0.26 0.23 0.26 0.24 0.27 0.27 0.24 0.26 0.23 0.27 0.24 0.29 0.30 0.29 0.33 0.29 0.25 0.19 0.20 0.20 0.19 0.20 0.20 0.20 0.21 0.22 0.22 0.21 0.20 0.20 0.18 0.25 0.32 0.31 0.32 0.34 0.34 0.30 0.27 0.35 0.39 0.37 0.41 0.48 0.53 0.58 0.73 0.79 0.90 0.83 0.97 1.13 1.02 0.97 1.04 0.96 0.90 1.25
0.56 0.52 0.50 0.53 0.41 0.44 0.40 0.37 0.40 0.37 0.33 0.35 0.31 0.33 0.31 0.29 0.28 0.30 0.27 0.29 0.26 0.30 0.31 0.25 0.28 0.31 0.32 0.32 0.29 0.24 0.26 0.23 0.26 0.30 0.27 0.27 0.27 0.26 0.23 0.24 0.29 0.29 0.30 0.28 0.30 0.34 0.28 0.22 0.23 0.22 0.20 0.19 0.19 0.20 0.21 0.19 0.20 0.22 0.20 0.20 0.20 0.20 0.24 0.31 0.32 0.33 0.33 0.32 0.32 0.37 0.39 0.38 0.44 0.50 0.57 0.68 0.78 0.82 0.90 0.93 1.00 1.09 1.03 1.05 1.07 1.01 1.02 1.13
0.44 0.48 0.45 0.52 0.45 0.44 0.44 0.41 0.39 0.38 0.34 0.37 0.34 0.29 0.35 0.32 0.32 0.32 0.33 0.31 0.28 0.32 0.33 0.30 0.30 0.29 0.28 0.31 0.32 0.26 0.30 0.29 0.28 0.25 0.31 0.29 0.28 0.28 0.27 0.27 0.26 0.30 0.29 0.25 0.26 0.34 0.30 0.24 0.29 0.28 0.22 0.21 0.23 0.23 0.21 0.20 0.19 0.17 0.20 0.21 0.20 0.20 0.20 0.22 0.25 0.29 0.32 0.32 0.32 0.36 0.38 0.39 0.50 0.54 0.67 0.76 0.78 0.83 0.90 0.94 0.94 1.04 1.08 1.07 1.03 1.03 1.03 1.06
0.57 0.62 0.61 0.48 0.42 0.46 0.46 0.42 0.40 0.38 0.36 0.36 0.34 0.34 0.35 0.35 0.31 0.34 0.34 0.37 0.32 0.28 0.32 0.27 0.27 0.28 0.27 0.30 0.32 0.33 0.37 0.36 0.35 0.33 0.31 0.30 0.24 0.29 0.25 0.26 0.30 0.24 0.26 0.26 0.29 0.32 0.30 0.26 0.30 0.29 0.23 0.20 0.22 0.22 0.22 0.21 0.20 0.17 0.15 0.17 0.19 0.19 0.17 0.20 0.21 0.24 0.27 0.30 0.33 0.35 0.36 0.38 0.50 0.62 0.67 0.80 0.78 0.80 0.86 0.91 0.90 0.99 1.06 1.08 1.10 1.07 1.05 1.04
0.65 0.66 0.67 0.58 0.45 0.48 0.46 0.43 0.42 0.40 0.30 0.35 0.35 0.36 0.35 0.36 0.37 0.38 0.34 0.41 0.34 0.36 0.36 0.33 0.32 0.29 0.27 0.29 0.29 0.34 0.38 0.36 0.33 0.32 0.33 0.33 0.33 0.32 0.31 0.30 0.30 0.27 0.24 0.23 0.29 0.27 0.30 0.30 0.28 0.28 0.23 0.21 0.24 0.25 0.23 0.22 0.20 0.17 0.15 0.15 0.16 0.19 0.19 0.19 0.22 0.24 0.23 0.27 0.32 0.31 0.34 0.45 0.52 0.64 0.65 0.73 0.76 0.79 0.88 0.90 0.87 0.96 1.02 1.05 1.08 1.09 1.05 1.03
Wind_Speed
16 16 16 16 16 16 15 15 15 15 15 15 15 15 15 15 15 15 15 15 14 14 13 13 13 12 12 12 11 11 11 11 11 12 12 11 11 11 9 9 12 13 12 11 12 13 14 14 15 15 14 13 12 11 10 10 9 6 4 4 3 3 2 3 2 2 1 2 3 4 4 3 3 5 6 7 6 7 9 7 5 6 9 10 12 16 17 16
17 17 17 17 16 16 16 16 16 16 15 15 15 15 15 15 15 15 15 15 15 15 14 14 13 13 13 12 12 11 11 11 12 13 14 12 12 13 12 10 11 13 13 12 13 13 13 14 14 15 14 13 13 11 10 10 10 7 5 5 5 4 3 2 2 2 2 2 4 4 3 2 1 2 3 5 4 4 7 7 7 8 10 11 14 16 16 16
17 17 17 17 17 16 16 16 16 16 16 16 16 16 16 16 16 16 15 15 15 15 15 15 14 14 13 12 12 11 11 11 12 13 13 13 14 13 13 12 12 12 13 14 14 14 14 14 14 15 15 14 13 12 11 11 11 10 7 6 6 5 3 2 2 1 1 2 4 4 3 2 2 2 3 4 5 4 5 6 8 10 12 13 14 15 16 16
18 18 18 17 17 17 16 16 16 16 16 16 16 16 16 16 16 16 16 15 15 15 15 15 15 14 13 13 12 12 12 11 11 11 10 11 13 13 13 13 13 13 14 15 15 15 15 14 14 15 14 13 13 13 12 12 11 10 9 8 6 6 5 3 3 2 2 2 3 4 3 3 3 3 4 5 5 4 4 5 7 10 13 13 14 15 15 15
18 18 18 18 18 17 17 17 16 16 16 16 16 16 16 16 16 16 16 15 15 15 15 15 14 14 13 13 12 12 11 10 10 11 10 11 11 12 14 14 14 14 14 15 15 15 16 15 14 14 13 12 12 12 13 14 12 10 10 10 8 7 6 4 3 3 3 3 3 4 4 4 4 3 5 6 5 5 5 4 7 11 12 13 14 14 15 15
19 19 19 18 18 18 18 17 17 17 16 16 16 16 16 16 16 16 16 15 15 15 15 14 14 14 13 13 12 12 11 10 10 10 10 11 12 12 13 14 14 14 14 15 16 15 16 15 15 14 12 11 12 12 12 14 13 11 10 10 9 9 7 6 5 4 5 4 3 4 5 5 4 4 6 7 5 6 6 4 8 11 11 12 13 14 14 14
19 19 19 19 18 18 18 18 18 17 17 17 16 16 16 16 16 16 15 15 15 14 14 14 14 13 13 13 12 12 13 13 12 11 10 11 12 12 13 14 14 15 15 16 16 16 15 15 15 15 13 12 12 11 12 13 14 13 11 10 10 10 9 9 7 6 6 5 3 4 4 5 6 5 5 7 6 7 6 5 8 11 12 12 13 13 14 14
20 20 20 19 19 19 19 18 18 18 17 17 17 17 17 17 16 16 15 15 14 14 14 13 13 13 13 12 12 13 14 14 14 12 11 11 11 12 13 13 14 15 16 16 17 16 15 15 15 15 14 13 12 11 11 11 12 13 12 11 11 11 10 10 9 7 7 6 5 5 5 6 7 6 4 6 7 7 6 7 9 12 12 12 13 13 14 14
21 21 21 20 20 19 19 19 19 18 18 18 17 17 17 17 16 16 15 15 14 14 13 13 13 13 13 13 12 13 13 13 13 13 12 12 12 12 13 14 15 16 16 17 17 17 15 15 15 15 14 13 13 12 11 10 9 10 12 11 11 11 10 11 9 8 8 6 6 7 6 7 7 6 5 5 7 7 8 8 10 12 12 12 13 13 14 14
22 22 22 21 21 20 20 20 19 19 19 18 18 18 17 17 17 16 15 15 14 14 14 14 14 14 13 13 13 13 13 12 13 13 13 13 13 13 14 14 15 17 17 17 18 17 17 16 15 15 15 14 14 13 12 11 9 10 11 11 12 11 11 12 10 10 9 7 8 8 7 6 7 7 5 5 7 8 9 10 11 11 12 12 13 13 14 14
23 22 22 22 22 22 21 21 20 20 19 19 19 18 18 17 17 16 16 15 15 14 14 15 14 14 14 14 14 14 13 13 14 14 13 14 14 14 15 15 15 17 17 17 18 18 18 17 15 15 15 14 14 14 13 12 11 11 11 10 10 9 10 12 11 11 10 8 9 8 7 7 6 6 6 7 8 9 10 11 13 12 12 12 12 13 13 13
24 23 23 23 23 22 22 21 21 20 20 20 19 19 18 17 17 16 16 15 15 15 14 14 14 14 14 15 16 15 14 14 13 14 14 14 15 15 15 16 16 17 18 17 18 18 18 17 16 16 15 14 13 12 12 13 13 12 11 10 9 8 8 11 12 13 12 10 10 8 6 7 7 7 7 8 9 10 11 11 12 12 12 12 12 13 12 13
24 24 24 23 23 23 23 22 22 21 20 20 20 19 19 18 17 16 16 16 15 15 15 14 14 14 15 15 15 16 16 15 14 14 15 15 15 15 15 16 16 17 18 18 18 18 18 17 17 17 17 15 14 13 11 12 12 12 12 10 10 10 9 11 12 13 13 11 13 10 7 8 8 9 9 8 10 11 11 12 12 12 12 12 12 14 13 13
24 24 24 23 23 23 23 22 22 21 21 21 20 19 19 19 18 17 16 16 16 15 15 14 14 14 15 15 15 14 14 15 15 14 15 15 16 16 16 17 17 18 19 19 19 17 17 18 17 17 17 16 15 14 13 12 12 11 12 12 11 11 11 11 12 13 13 13 15 11 8 9 9 10 11 10 11 11 12 13 12 12 13 12 13 13 13 15
24 24 23 23 23 23 23 23 22 21 21 20 20 19 19 19 18 17 16 16 16 15 15 14 14 14 15 16 16 14 12 14 15 15 15 15 16 16 16 17 18 18 19 20 20 18 17 17 18 17 16 17 16 15 14 13 12 11 12 12 12 12 12 12 13 14 14 13 16 12 9 9 9 10 12 12 12 12 12 13 12 13 13 13 13 13 13 15
24 24 23 23 23 23 23 23 22 22 21 20 20 19 19 19 19 17 16 16 16 15 15 14 14 14 14 15 15 14 13 14 14 14 15 15 16 17 16 16 17 18 19 20 20 18 17 16 17 17 17 16 15 14 13 13 13 12 12 13 13 13 12 12 13 15 16 14 15 13 9 8 9 11 13 13 14 13 12 12 13 13 13 13 13 14 13 15
24 24 23 23 23 23 22 22 22 21 21 20 20 19 19 19 18 17 16 16 16 16 15 15 14 14 15 15 14 15 15 13 13 14 15 16 17 18 16 16 17 18 19 19 20 19 18 17 16 16 17 16 15 14 14 13 13 13 13 13 13 13 13 12 11 12 16 16 15 14 10 8 9 11 13 14 14 14 13 12 14 13 13 13 13 14 14 15
24 24 23 23 23 23 22 22 22 21 20 20 19 19 19 18 17 16 16 15 15 15 15 15 14 14 15 15 15 15 14 13 13 14 15 15 17 18 17 17 17 18 18 19 20 20 18 17 16 16 16 16 15 15 15 14 13 13 14 12 12 13 13 13 12 11 13 17 17 14 12 10 9 11 14 15 15 14 14 13 13 13 13 14 14 14 14 15
24 23 23 23 22 22 22 22 22 21 20 19 18 18 16 15 15 15 15 15 15 15 14 15 15 15 15 15 16 15 14 14 14 15 16 15 16 17 18 18 17 18 18 17 18 19 18 17 17 17 16 16 17 17 16 15 14 15 14 13 13 13 13 13 14 13 13 16 18 16 13 12 11 11 13 15 15 14 14 14 13 13 14 14 14 15 15 15
24 23 23 22 22 22 22 21 21 20 19 17 16 15 14 13 14 14 14 16 17 17 17 17 17 18 16 16 16 15 16 17 16 16 15 15 15 17 18 18 18 18 18 17 17 19 19 18 18 18 18 18 18 18 18 17 17 17 15 15 15 14 13 12 13 14 13 15 19 17 14 14 12 11 13 14 13 14 15 15 14 14 15 15 15 16 15 15
24 23 23 22 22 21 21 21 20 19 18 17 16 15 13 13 14 14 15 16 18 19 20 19 18 18 17 17 17 15 16 17 17 16 14 15 16 15 16 18 18 18 19 19 18 18 19 19 19 19 19 19 19 18 19 19 19 18 16 15 15 14 13 12 13 14 13 13 18 17 15 15 14 12 13 13 12 14 16 16 15 16 17 15 15 16 16 15
24 23 22 23 22 22 21 20 19 18 18 16 15 15 13 13 14 15 15 17 18 19 19 19 18 18 17 17 17 16 16 16 17 17 15 15 16 16 16 17 18 18 18 19 19 18 20 20 19 19 19 19 20 19 19 20 19 18 17 15 15 14 13 12 11 12 12 12 16 18 16 16 15 14 14 13 13 15 16 16 16 16 17 16 16 17 16 15
24 23 23 22 22 22 21 20 19 18 17 16 16 15 13 14 15 15 16 17 18 19 19 18 17 17 17 16 15 15 16 16 16 16 15 15 16 17 17 17 18 18 19 19 19 20 20 19 19 19 20 20 20 20 20 20 18 17 17 16 16 15 14 12 10 10 11 12 14 17 17 16 16 15 14 14 13 15 16 16 16 16 17 18 17 17 17 16
24 24 23 22 23 22 21 21 19 17 17 17 17 15 14 14 14 14 15 16 16 17 18 17 17 16 16 15 14 14 15 15 15 14 15 16 16 17 17 18 18 18 19 20 21 21 21 19 19 19 20 20 21 21 20 19 18 18 18 18 17 16 15 14 12 11 12 13 14 16 15 16 18 16 15 15 13 14 15 16 16 16 18 18 18 17 18 18
24 24 23 23 22 22 21 19 16 16 17 16 15 14 13 13 14 14 15 15 15 15 16 16 16 15 15 14 15 15 15 16 16 15 15 15 15 16 16 17 18 18 18 20 21 21 21 21 20 19 19 20 20 20 20 19 18 18 18 18 18 18 17 17 15 12 12 12 13 16 16 15 19 20 17 16 15 14 14 15 16 17 18 18 19 18 18 19
25 24 23 22 21 21 19 15 15 17 16 14 13 14 13 13 14 14 14 15 15 14 14 14 14 14 14 14 15 15 15 15 15 14 15 15 15 16 16 16 17 18 18 18 19 19 20 20 21 20 20 20 20 20 20 20 19 19 18 17 18 18 18 19 18 15 14 13 12 15 16 15 18 21 19 17 17 16 16 15 15 17 18 18 19 19 19 20
24 23 23 22 20 19 16 13 15 16 15 13 14 14 14 13 13 13 13 14 14 14 13 13 13 12 12 13 14 14 14 14 14 15 14 15 15 16 16 17 17 17 17 17 18 18 19 20 20 21 21 20 20 19 20 21 20 19 18 18 17 17 17 19 19 18 17 17 15 13 14 15 17 21 20 19 18 17 17 16 15 16 19 19 19 19 20 21
24 23 23 22 20 18 15 14 15 14 14 14 14 14 13 13 13 12 12 12 12 13 13 12 12 12 12 13 14 14 14 14 15 15 14 13 15 16 16 17 17 17 17 17 18 18 18 18 19 20 22 21 20 19 19 21 21 19 18 19 18 17 17 17 18 19 18 18 18 15 12 12 14 18 20 19 19 19 18 17 16 16 19 19 20 20 20 21
24 23 22 21 20 17 14 14 13 13 13 13 13 13 13 13 12 11 11 11 11 12 12 12 13 13 13 14 14 15 15 14 15 15 14 14 15 15 16 17 17 18 18 18 19 19 18 17 17 19 21 22 21 20 19 20 20 20 20 20 19 17 16 15 15 16 17 18 20 19 14 12 13 15 20 21 20 20 18 17 16 16 18 19 20 21 20 20
24 23 22 21 18 15 13 12 12 12 12 13 12 11 11 11 11 10 11 10 10 11 12 12 12 13 13 13 14 14 14 14 15 15 14 14 14 14 15 16 17 18 19 19 19 20 20 20 19 18 19 20 22 21 21 20 19 18 19 20 20 19 17 16 15 14 14 17 21 21 17 15 14 14 18 21 20 19 18 16 16 16 18 19 20 21 21 21
24 23 21 19 16 13 12 11 10 10 11 11 10 10 9 8 8 8 8 8 8 10 10 11 12 12 13 13 13 14 13 13 14 14 14 14 14 15 14 15 15 16 18 19 19 20 21 21 19 18 18 18 20 21 21 21 20 18 18 18 19 20 19 17 16 15 15 17 19 21 20 18 18 17 17 17 18 20 19 17 16 17 18 19 20 21 22 22
25 23 21 17 14 12 11 11 10 10 9 9 8 8 7 6 6 7 7 7 8 9 10 10 10 10 10 11 12 13 12 12 12 12 13 14 14 15 14 14 14 15 16 16 17 18 21 22 21 20 19 17 18 19 19 20 21 20 18 18 17 17 18 18 16 16 18 18 18 19 21 21 21 21 20 19 18 19 20 19 17 18 18 19 20 21 22 23
25 23 19 14 12 10 10 10 10 9 8 7 7 7 6 6 6 6 5 5 7 9 9 8 8 7 7 8 10 11 10 11 12 10 11 13 13 13 13 13 13 14 15 15 15 15 16 20 21 21 19 19 19 19 20 19 19 20 19 18 18 16 16 17 17 17 18 19 20 21 21 22 22 22 22 22 19 18 21 22 20 20 20 20 20 21 22 23
25 21 15 12 11 10 10 9 8 7 7 6 6 6 6 6 5 4 2 2 5 6 6 7 8 8 9 10 9 10 10 11 11 11 10 11 12 12 11 11 12 14 15 15 15 15 15 16 18 18 18 20 21 21 21 20 19 21 21 20 20 19 17 16 17 17 17 17 20 22 21 20 22 22 22 22 21 18 21 24 23 22 21 20 20 21 22 23
23 18 13 12 11 10 9 8 7 6 6 5 5 5 5 5 4 4 3 3 4 3 2 5 8 8 9 10 9 8 9 9 10 11 12 12 11 11 12 11 11 13 15 15 15 15 16 16 15 16 18 19 22 22 22 21 20 20 21 22 23 22 19 19 19 19 18 16 17 19 20 20 21 21 21 22 24 22 21 24 24 22 22 22 21 22 22 22
20 15 11 11 11 8 6 5 5 4 4 4 4 4 4 3 3 4 5 5 5 5 5 5 6 6 7 8 9 8 8 10 10 10 11 12 9 9 12 12 11 12 13 15 15 14 15 18 16 16 17 16 17 21 23 22 20 18 19 22 23 22 21 20 21 21 20 18 16 18 19 19 19 20 19 20 22 23 23 24 25 23 24 24 23 23 23 22
16 13 11 9 9 7 3 2 2 3 4 4 3 3 4 3 3 4 5 6 6 6 6 5 4 5 4 5 8 7 6 8 10 9 10 11 8 7 10 11 10 11 12 13 15 14 15 19 18 15 16 14 13 18 22 23 22 20 20 19 19 20 21 19 19 19 19 18 17 17 18 16 16 17 18 18 19 21 22 24 25 24 24 26 25 24 23 22
14 12 9 8 7 6 3 0 3 4 3 3 2 2 2 2 3 4 6 7 7 6 6 5 5 4 2 3 6 7 6 6 7 8 9 9 8 7 9 11 10 10 12 13 15 15 15 18 20 17 16 16 15 15 18 21 23 22 21 19 16 17 19 20 19 18 18 17 17 18 19 17 15 15 17 18 18 19 19 21 25 25 23 25 25 26 25 23
13 10 8 7 6 4 2 2 3 3 2 2 2 1 1 1 2 4 5 6 6 6 6 4 4 5 4 3 4 6 7 7 7 7 7 7 8 8 9 12 11 10 12 13 14 16 15 16 21 19 15 15 16 15 13 15 20 21 21 21 18 17 17 18 20 19 18 18 17 17 18 18 16 14 15 18 18 18 17 18 23 25 24 25 25 25 25 23
11 9 7 7 5 3 2 3 2 1 2 1 1 1 0 1 2 4 3 3 3 5 6 4 3 4 4 3 3 5 6 7 7 7 6 6 8 9 9 11 11 11 13 13 14 16 16 17 21 22 18 16 17 16 12 11 14 16 18 20 19 18 18 18 18 20 20 19 18 17 17 18 18 14 12 13 16 18 17 16 21 24 25 26 27 26 25 24
10 8 7 6 3 2 1 1 0 1 1 0 0 1 1 2 3 4 3 2 2 2 4 5 4 4 4 4 3 5 6 5 5 6 6 5 7 9 9 10 12 13 13 13 13 15 16 18 20 22 21 20 20 20 17 16 16 15 17 19 18 18 19 18 17 18 19 18 17 18 18 18 18 14 10 9 11 16 18 16 18 24 26 26 28 28 26 25
9 8 6 4 3 2 1 1 1 0 1 0 0 1 2 1 2 4 4 2 1 1 2 3 4 4 4 4 4 5 6 6 5 5 6 5 6 8 8 9 12 13 14 13 13 15 17 19 21 22 23 24 25 24 21 20 20 19 19 19 19 18 18 19 19 17 16 16 15 17 18 18 16 12 10 10 10 14 19 18 15 21 27 27 27 28 27 26
9 7 5 4 3 2 2 2 2 1 0 1 1 2 2 1 2 3 3 4 2 1 1 2 2 3 4 5 5 6 7 7 7 7 6 5 5 5 6 9 10 11 13 14 14 15 17 18 19 22 23 24 26 26 23 22 20 19 19 17 17 17 16 18 20 18 18 17 14 14 17 19 17 10 8 11 11 12 16 20 17 18 23 26 28 29 28 27
9 6 3 3 3 3 2 3 3 2 2 2 2 3 3 2 2 1 2 4 3 1 2 3 3 4 5 6 7 7 7 8 9 8 8 8 8 7 8 10 11 11 11 13 15 15 16 17 17 19 21 22 23 23 22 21 19 19 20 17 16 17 16 16 18 19 19 17 13 13 16 18 17 9 8 8 8 6 6 13 17 17 19 23 27 30 29 28
8 6 4 4 4 3 2 3 3 2 2 2 3 4 4 3 3 3 2 4 4 3 3 4 5 6 6 7 8 8 8 8 10 12 11 12 12 12 11 12 13 13 12 13 14 15 16 17 18 18 19 20 21 20 20 20 20 21 23 21 18 16 15 16 17 18 20 18 16 16 17 18 15 10 8 6 5 3 2 3 8 12 14 18 23 30 32 29
7 5 4 4 5 5 3 3 4 3 2 2 1 3 5 3 3 4 3 3 4 5 4 5 6 6 6 7 8 8 8 9 11 13 14 15 16 16 16 16 16 16 17 17 17 16 17 18 20 20 22 23 24 23 23 23 23 24 25 24 22 19 17 18 19 20 20 20 20 20 18 18 15 12 10 6 3 4 2 1 3 6 9 11 14 22 31 32
6 5 3 2 3 5 4 4 4 3 3 4 1 2 4 4 4 4 3 3 4 5 5 4 6 6 6 6 8 8 9 10 11 11 13 14 16 17 18 18 19 20 20 20 19 19 18 20 21 23 25 26 26 27 26 25 25 26 27 27 26 23 21 21 21 22 21 22 23 21 19 20 17 14 13 10 7 6 5 4 4 4 7 10 9 11 19 26
7 5 4 2 2 3 4 4 5 3 4 5 2 2 3 4 4 4 3 4 4 5 5 4 5 7 7 6 7 8 9 10 10 10 11 12 14 15 16 17 19 19 19 20 20 20 20 21 22 24 26 27 27 28 27 26 26 27 28 29 27 25 23 23 23 23 23 25 25 22 22 23 20 17 16 14 12 10 8 7 6 5 6 8 9 9 12 17
8 5 5 4 3 4 3 4 5 4 4 4 4 4 5 5 5 5 5 5 4 5 5 6 6 7 8 8 8 8 8 9 9 10 11 12 13 14 15 15 16 16 17 19 19 19 20 22 22 23 26 27 27 28 28 29 29 29 29 30 29 28 26 26 26 26 25 28 28 25 24 25 21 20 18 16 15 13 10 9 8 6 7 7 8 10 12 14
9 6 4 5 5 5 5 4 4 4 4 4 4 5 6 6 6 7 6 7 7 6 6 7 7 7 9 10 8 7 8 9 10 11 12 13 14 14 14 15 15 16 17 18 18 18 20 21 22 22 24 25 26 27 27 28 30 31 32 31 31 31 30 29 29 28 28 30 30 26 26 25 22 21 20 18 17 15 12 12 10 7 8 9 9 10 12 12
9 7 5 5 4 5 5 4 3 3 3 4 4 5 6 7 7 7 7 7 8 7 7 9 9 8 8 8 7 7 8 9 10 12 13 14 14 14 14 14 15 16 17 18 18 19 19 20 21 21 22 24 25 25 26 27 29 32 33 32 31 31 31 30 30 28 28 29 29 28 27 25 22 21 20 19 18 17 15 15 14 11 9 9 10 10 11 12
11 9 7 6 5 5 5 4 4 4 4 5 5 6 6 7 7 7 7 7 8 7 7 9 9 8 7 6 7 8 9 11 12 13 14 14 14 14 14 14 15 14 14 15 16 18 19 20 20 20 22 24 24 24 25 25 26 29 30 31 30 30 31 32 32 31 30 30 30 30 28 26 23 21 21 21 21 20 19 17 17 15 12 11 11 11 11 12
Wind_Direction
321 320 319 317 314 311 308 306 303 301 299 297 295 293 291 291 289 287 285 282 280 279 277 276 275 273 271 270 268 267 266 259 251 242 238 234 223 219 221 216 211 209 209 211 212 212 212 213 215 215 218 223 227 228 228 222 213 215 229 239 251 265 299 297 299 307 265 216 202 201 213 220 166 161 166 161 158 138 136 135 133 140 142 145 147 149 151 150
319 318 317 316 314 311 309 306 303 300 298 296 294 292 291 290 288 286 284 281 279 277 276 274 273 272 270 268 266 265 263 257 250 244 239 231 225 223 222 217 211 210 210 211 209 209 211 212 213 215 218 222 223 223 226 219 211 217 227 235 246 257 288 288 291 314 278 235 214 209 216 224 125 140 155 148 142 135 138 138 144 145 142 148 150 150 155 154
317 316 316 315 313 310 308 305 303 300 298 295 293 292 291 290 288 285 283 280 278 276 274 272 272 271 268 265 264 263 260 256 249 245 239 229 228 228 222 218 214 213 213 212 208 206 208 207 209 213 216 221 222 222 223 219 218 221 224 239 246 245 266 274 272 283 246 218 201 207 210 210 197 165 165 160 152 160 154 143 150 147 145 154 153 155 158 156
315 314 314 313 312 310 307 304 302 300 298 295 294 292 290 290 288 285 282 280 277 275 272 271 270 268 265 263 262 261 257 253 244 238 236 229 227 226 223 219 216 217 216 214 211 210 212 208 205 209 213 219 222 224 226 223 224 223 228 245 243 233 251 262 259 248 230 210 186 190 190 199 201 179 182 175 153 161 172 160 161 151 150 157 156 160 162 159
315 313 313 312 311 309 306 303 301 299 297 295 293 292 291 290 288 285 282 279 277 273 270 269 268 266 263 260 260 257 251 245 235 232 234 232 229 227 225 220 216 218 216 215 214 215 222 219 212 211 213 218 220 222 227 225 226 229 235 244 235 232 246 245 243 235 214 203 187 181 182 186 187 188 187 176 163 175 186 178 168 158 158 161 159 163 165 163
315 313 312 312 310 309 306 303 300 298 296 294 292 291 290 289 287 284 280 278 275 272 268 267 266 263 260 259 258 251 243 239 234 233 234 232 230 228 225 220 216 216 216 215 215 219 224 224 220 216 215 218 220 224 228 225 226 232 240 242 228 225 233 226 223 217 208 198 188 190 188 187 194 208 197 185 184 188 193 187 169 163 163 162 161 165 168 167
314 313 312 311 310 308 306 302 299 297 295 293 292 290 289 289 287 283 279 277 274 271 267 264 263 260 259 258 254 246 242 242 238 233 232 230 230 228 223 218 216 216 216 215 216 219 222 224 220 217 218 220 221 227 233 231 231 234 244 245 226 222 224 218 217 211 209 204 194 192 181 184 195 201 196 193 193 188 191 190 171 163 162 163 165 169 171 169
313 311 310 310 309 308 306 302 298 296 294 292 291 290 289 288 286 282 279 276 273 270 265 262 260 256 257 255 250 246 242 240 235 232 233 234 232 227 222 220 218 216 215 215 216 217 221 226 222 217 219 222 223 227 232 234 233 236 243 242 229 227 225 219 217 210 209 210 204 197 189 192 197 200 200 194 191 187 185 183 171 165 168 170 171 175 174 171
311 310 309 308 307 306 304 301 298 295 293 291 290 289 288 287 285 282 278 275 272 268 264 261 258 255 255 250 247 246 240 237 235 231 233 236 235 227 223 223 219 216 214 214 216 217 221 227 222 217 220 224 227 231 235 234 231 234 238 242 240 232 225 223 218 211 214 218 207 201 205 208 205 211 218 196 183 182 184 179 169 167 174 176 176 179 177 175
309 308 307 306 304 303 302 300 297 295 292 290 288 287 286 284 283 281 278 274 270 267 263 260 257 255 252 244 243 242 239 240 238 235 232 233 236 230 225 225 219 215 215 214 215 219 223 226 223 220 225 230 232 236 239 236 238 244 243 251 246 223 216 221 216 211 216 219 210 206 211 218 216 218 224 206 184 181 184 178 172 173 177 178 181 183 181 180
307 306 305 304 303 301 300 298 296 294 292 290 287 285 283 281 280 278 276 272 268 266 262 259 257 253 249 243 241 240 241 244 243 243 237 232 235 231 226 224 219 216 216 215 216 219 224 227 228 226 226 231 235 238 241 239 246 252 249 257 248 223 213 216 213 212 217 224 216 209 211 220 225 223 219 206 191 190 190 180 178 179 179 182 185 185 185 184
305 304 303 302 301 300 299 297 295 293 291 290 287 283 280 278 277 275 273 269 265 264 261 259 254 249 248 244 240 239 245 249 245 243 238 234 235 231 227 224 220 218 217 218 219 221 226 228 231 232 229 230 232 234 242 244 246 244 241 246 244 238 220 213 217 212 217 226 211 206 217 225 228 218 206 198 192 193 191 184 182 179 181 187 185 186 191 188
306 304 302 300 299 298 298 296 295 293 291 289 286 283 279 276 275 273 270 265 262 261 259 257 251 249 249 245 241 241 247 247 244 242 237 235 233 230 228 224 222 221 218 220 220 222 226 226 231 236 234 234 233 235 248 250 243 237 235 234 231 237 228 221 223 213 218 219 203 210 229 228 229 213 198 194 193 189 186 188 188 182 187 192 186 188 192 189
307 304 302 300 298 297 296 295 294 293 290 288 285 282 278 275 274 271 268 262 259 258 256 253 250 249 248 246 244 245 248 244 240 240 236 234 232 228 228 225 223 222 220 223 224 226 230 229 231 236 236 236 239 242 248 246 241 235 233 234 228 231 233 231 226 214 218 211 199 213 230 228 232 211 196 198 197 192 189 190 190 186 191 193 190 192 191 189
308 306 303 301 299 297 296 295 294 292 290 287 284 281 277 274 273 270 265 259 256 255 253 251 249 248 248 248 244 242 247 243 238 238 232 233 234 227 224 225 224 222 222 226 228 230 234 234 231 232 236 238 240 242 241 238 238 234 232 235 230 230 235 237 232 219 218 213 207 216 231 230 229 209 198 202 202 199 197 192 190 193 193 192 192 196 193 190
308 306 305 303 301 299 297 296 294 293 290 287 283 279 275 273 270 267 263 257 255 253 250 250 246 246 249 247 241 241 246 243 239 239 233 233 236 231 225 224 225 224 224 227 228 229 232 235 232 230 233 235 235 236 239 241 239 236 233 233 232 230 232 236 237 226 218 214 211 213 224 228 223 212 201 201 202 201 203 196 193 198 197 194 195 197 195 192
309 307 305 303 301 299 298 297 295 294 291 288 283 278 274 270 266 262 260 256 253 251 250 249 246 246 247 245 245 244 244 242 244 242 237 235 234 234 232 226 225 224 224 226 227 228 229 231 230 229 229 231 231 231 235 238 237 237 233 232 234 232 231 232 235 228 215 210 208 207 217 225 220 213 202 200 203 203 206 202 198 202 200 196 196 196 196 194
310 308 307 304 302 299 298 297 296 295 292 288 284 279 273 268 263 258 257 254 251 249 249 247 244 246 246 245 247 243 238 242 247 243 237 234 232 234 235 228 225 223 223 226 225 225 226 226 227 228 228 228 228 227 229 231 231 231 227 226 231 233 234 235 234 227 213 208 206 205 216 223 217 210 203 202 204 205 209 205 201 202 198 197 197 198 199 195
310 309 308 305 302 300 298 297 295 294 292 288 285 281 273 268 261 253 254 253 247 246 249 245 239 243 248 247 245 242 242 245 246 242 236 233 230 232 235 230 226 224 222 224 224 223 225 226 226 227 227 227 226 226 229 233 232 231 232 233 232 232 233 234 235 232 220 211 207 207 215 219 216 212 206 204 204 207 209 204 202 201 199 200 200 201 201 196
311 309 308 306 304 301 299 297 294 292 291 287 286 282 274 271 261 254 258 254 246 247 252 250 242 244 251 251 248 248 249 246 241 239 235 232 228 228 232 229 225 224 224 225 224 223 225 228 228 227 227 227 228 227 230 236 239 239 242 244 243 241 237 232 232 231 225 214 208 211 217 214 214 215 207 204 205 207 209 207 205 203 204 205 202 201 202 198
313 309 307 305 305 302 299 297 294 291 287 283 281 276 271 271 260 257 264 258 253 253 253 252 247 248 250 249 250 251 249 243 236 234 235 234 230 227 227 226 225 225 225 227 227 225 226 229 229 229 229 229 230 230 229 233 238 241 241 244 246 244 243 240 234 230 225 215 208 212 218 211 211 214 206 205 209 211 212 212 209 206 206 208 203 201 202 199
316 312 308 305 304 302 299 296 292 289 285 279 275 269 266 268 262 261 263 259 260 259 255 252 246 246 248 245 247 247 244 243 238 233 237 236 228 226 226 224 226 227 225 227 228 227 228 231 232 230 230 230 231 232 231 231 234 237 236 239 242 241 245 245 237 228 223 221 216 214 218 216 213 211 208 212 216 215 213 211 210 206 205 207 204 202 202 201
317 315 311 306 303 301 298 294 290 287 282 276 273 269 268 269 266 265 262 258 259 258 253 248 242 242 244 241 241 240 239 244 240 231 235 236 228 227 227 226 229 228 226 226 227 228 230 231 231 231 231 230 230 231 233 233 232 234 233 233 235 237 242 238 230 229 230 234 227 216 217 220 215 210 214 220 219 213 210 209 211 208 206 207 205 203 204 203
317 315 313 310 306 302 299 293 287 281 278 276 273 270 270 269 267 268 263 256 255 256 251 243 239 240 241 239 238 236 236 241 239 232 233 234 232 232 230 230 231 229 229 228 227 230 232 232 229 229 229 229 231 230 230 232 233 233 233 231 232 234 237 235 235 241 242 242 233 217 213 217 215 213 219 223 218 213 210 208 211 210 208 208 206 205 205 205
317 315 313 312 310 306 301 291 282 281 280 276 270 268 272 271 269 268 262 255 252 251 245 237 237 240 240 239 236 234 237 240 238 233 232 231 233 236 235 234 232 230 231 230 230 231 233 235 233 230 228 227 230 231 228 229 231 233 232 230 230 233 238 240 243 249 243 241 234 220 218 222 219 218 220 220 217 215 212 212 211 208 207 207 207 207 207 207
318 315 313 312 311 310 304 289 281 283 280 274 271 273 275 272 270 266 256 254 252 243 236 232 236 240 238 235 232 232 238 240 235 231 233 235 236 237 236 234 232 231 232 232 234 234 232 233 233 232 231 227 228 231 230 228 229 232 232 230 229 231 237 240 244 246 234 233 238 228 228 229 221 219 220 218 216 212 212 216 213 206 205 207 207 209 210 210
320 317 315 312 310 309 303 290 287 284 277 278 279 276 274 269 267 262 251 251 248 237 230 231 233 234 231 230 229 229 236 238 235 233 235 237 235 234 233 233 232 231 232 233 234 233 231 231 231 232 233 230 229 230 229 228 229 231 230 232 233 230 233 236 238 239 232 234 242 237 235 233 224 221 219 215 212 208 210 215 213 206 206 208 208 209 210 210
322 319 317 313 309 304 294 287 289 282 276 284 284 276 271 266 261 256 248 247 242 231 228 229 229 231 233 234 233 233 237 238 236 233 233 235 233 231 231 232 234 234 234 236 235 234 230 228 230 232 232 231 230 230 229 227 229 231 229 232 235 234 236 235 233 234 232 235 239 236 235 237 232 223 214 210 209 210 212 214 213 209 208 209 209 209 209 209
323 320 318 315 310 303 293 285 286 282 280 285 285 277 270 263 256 248 244 245 236 229 231 229 230 236 239 239 235 234 237 236 233 231 233 237 233 231 233 235 238 239 238 237 236 235 233 232 234 235 233 230 230 231 230 227 228 230 231 233 234 236 240 237 231 231 230 231 233 233 233 236 238 223 210 211 213 214 217 219 218 214 211 211 210 209 209 208
324 321 319 317 312 305 297 289 283 283 284 284 282 278 270 258 248 241 241 239 227 226 232 229 231 236 236 238 234 231 235 235 232 231 236 238 230 229 237 238 238 239 237 237 237 237 238 241 240 235 234 231 229 230 230 229 231 230 229 232 234 236 239 238 233 230 230 231 232 233 234 237 239 227 213 214 218 217 218 222 223 218 214 213 212 211 210 208
325 321 319 316 311 305 297 290 284 284 285 281 277 273 263 248 239 237 236 233 227 232 231 226 231 235 235 241 235 229 234 236 233 234 237 236 230 231 238 239 237 237 238 238 239 240 239 239 236 235 238 235 230 230 229 230 231 229 229 228 230 233 235 238 239 231 229 234 235 235 237 237 238 234 226 223 222 220 220 222 222 218 215 214 214 211 210 209
325 321 319 314 308 303 296 289 286 287 285 281 272 261 248 234 227 228 237 241 233 235 234 227 232 235 236 242 234 227 230 234 236 239 238 236 235 235 236 235 234 233 235 236 237 240 238 233 231 234 238 235 232 231 230 232 229 227 231 228 225 229 230 233 236 232 230 234 237 239 239 237 237 238 236 234 231 226 225 225 222 218 214 213 213 212 210 208
326 322 319 313 306 303 299 293 288 284 282 278 262 242 233 227 220 225 247 245 224 230 236 229 231 236 237 239 232 227 230 232 234 238 238 237 238 236 232 232 236 234 232 236 240 240 238 234 230 230 234 233 232 230 229 231 228 226 229 226 224 226 228 231 232 232 235 236 236 238 239 238 239 240 237 235 235 230 225 225 223 217 214 213 212 210 209 208
326 323 318 313 306 300 298 296 289 279 274 268 244 227 228 224 223 241 258 235 227 232 231 230 241 249 246 241 234 231 235 233 231 235 239 237 236 235 230 232 241 239 234 236 240 238 239 237 229 229 234 233 231 230 228 230 230 228 227 225 227 228 229 233 231 229 233 236 235 233 234 235 236 239 236 235 238 233 223 223 223 219 215 214 211 209 209 210
327 323 315 311 307 301 294 290 285 272 261 248 222 218 227 223 232 251 251 248 247 247 263 258 251 250 246 236 228 230 234 235 235 239 240 237 236 235 233 237 242 240 237 236 239 241 242 236 231 238 243 236 231 229 227 230 234 231 226 225 228 229 231 235 237 238 238 241 239 232 233 235 235 238 235 234 240 239 229 223 222 221 217 214 213 212 211 211
331 329 322 313 311 310 296 279 270 250 233 223 212 212 218 228 246 248 249 260 259 257 281 279 247 245 247 227 219 226 235 240 239 238 236 229 231 236 231 237 244 240 238 236 237 244 243 235 235 244 244 237 236 232 225 225 230 231 226 227 229 229 231 235 240 244 244 244 240 236 241 240 234 236 235 233 236 239 236 227 223 222 217 215 215 213 212 212
336 337 334 326 324 329 320 274 233 203 199 204 208 212 221 242 265 259 253 263 268 257 261 270 248 248 251 211 213 228 240 242 235 234 235 223 227 245 234 234 245 242 239 238 236 240 243 238 234 237 241 245 251 241 225 219 225 230 230 230 230 229 231 232 235 238 239 239 237 237 245 242 231 232 234 231 230 235 239 231 223 221 216 215 215 212 212 212
337 335 335 336 340 350 3 121 173 175 186 195 202 216 229 256 280 284 273 268 269 254 246 258 251 249 261 207 222 240 241 238 235 236 238 224 224 248 242 238 248 248 246 245 240 240 245 241 231 229 242 251 252 240 224 218 223 229 233 232 229 230 232 233 234 233 233 237 237 238 243 241 234 231 227 228 230 235 240 230 221 220 217 214 214 211 212 213
338 337 340 345 351 9 51 111 147 167 180 187 212 228 201 40 347 323 302 278 264 245 238 255 253 254 270 245 241 258 244 234 239 241 242 231 228 246 254 248 250 257 256 250 245 242 242 237 230 229 240 248 240 228 220 222 225 229 234 232 229 229 231 233 234 231 231 234 235 237 238 237 237 235 229 232 236 237 240 231 220 219 216 213 211 211 212 214
343 341 342 346 356 37 94 117 135 172 187 194 240 269 262 304 351 6 349 296 267 238 230 245 263 264 270 260 260 273 257 240 236 240 253 245 233 245 261 255 254 262 261 254 249 244 239 234 233 235 239 240 232 222 225 238 235 232 233 230 231 231 230 234 236 233 231 230 232 235 237 237 234 234 237 242 244 242 238 231 223 219 215 213 211 211 212 213
349 347 344 351 17 84 110 105 153 191 209 261 254 331 300 275 316 359 360 316 297 245 223 231 246 252 265 276 276 272 269 257 238 242 259 257 241 249 262 264 264 266 260 253 249 246 241 237 237 239 238 237 235 233 238 243 238 235 230 227 232 234 230 232 235 234 231 230 232 232 234 238 230 225 243 254 258 251 235 226 225 219 216 215 213 212 212 211
351 355 1 25 61 78 43 13 28 175 250 287 186 325 319 282 321 348 354 339 311 286 237 235 247 251 259 273 277 278 271 257 252 260 264 260 252 254 265 272 273 270 262 255 252 252 249 242 241 241 239 239 240 239 241 241 238 238 231 225 231 234 233 232 229 231 234 236 240 231 228 233 222 215 246 258 276 266 232 221 225 218 217 219 214 212 211 209
353 0 23 56 55 29 24 33 32 36 340 164 119 5 350 343 335 347 1 360 344 295 271 274 264 258 276 279 271 283 281 256 255 275 275 262 256 267 285 286 279 273 265 257 255 257 253 245 245 246 242 241 241 239 239 239 238 236 230 228 234 234 239 239 229 226 231 233 236 230 224 224 215 216 254 260 283 283 238 229 233 219 216 219 215 213 212 210
358 359 12 17 360 353 24 39 34 52 74 78 78 59 43 22 2 349 344 353 355 315 281 301 283 264 283 285 265 276 288 263 254 271 275 262 260 281 304 299 286 277 269 261 258 257 251 247 250 249 244 241 240 237 236 237 238 235 229 232 238 238 245 246 232 225 226 223 224 228 225 218 213 228 267 268 279 292 258 244 238 225 220 218 215 214 212 210
359 358 3 9 15 29 58 37 25 36 56 52 58 49 40 37 28 9 340 348 351 326 299 308 307 289 286 286 273 275 285 273 262 268 271 264 262 274 293 296 288 279 275 274 267 258 251 248 249 246 241 238 235 232 232 238 242 237 233 235 239 242 247 245 234 227 226 225 222 223 227 224 220 236 262 278 275 260 323 295 234 225 229 223 216 215 212 210
354 359 7 14 26 39 56 35 26 32 25 15 0 2 9 19 17 1 349 344 335 322 312 308 312 309 295 289 285 281 285 285 275 270 271 268 265 270 280 284 282 277 277 278 272 260 252 249 247 245 242 240 238 238 240 244 245 242 242 243 241 242 244 239 234 229 229 232 227 221 226 231 229 235 244 255 271 235 218 280 218 219 231 223 215 215 213 212
357 9 21 16 12 25 36 23 18 28 17 4 301 296 344 353 352 348 342 342 333 323 317 308 312 320 315 302 293 288 292 292 281 274 276 275 272 274 278 278 278 277 275 273 268 261 254 251 248 247 246 243 243 245 246 247 246 245 246 245 241 241 241 238 235 233 233 233 228 224 230 233 231 234 237 234 234 227 212 209 219 226 225 216 208 209 209 211
8 19 32 33 352 5 16 6 7 22 24 14 0 327 344 352 360 353 332 337 342 328 315 314 324 330 329 319 300 293 296 291 282 281 283 282 281 280 281 279 277 278 275 268 264 260 255 252 250 249 248 246 245 246 246 245 245 243 242 242 241 241 241 239 237 235 233 230 228 231 235 234 232 236 239 231 223 223 219 209 215 232 226 212 206 198 190 198
13 20 22 16 9 14 11 1 10 24 21 5 360 358 355 356 3 356 336 325 329 325 313 315 329 328 320 316 302 290 293 291 288 290 288 286 287 284 283 282 278 278 277 269 262 257 253 252 252 251 249 247 245 245 245 245 245 243 241 240 240 240 240 240 238 236 235 233 231 233 234 232 232 234 238 235 223 220 222 213 214 233 228 207 199 195 189 195
19 21 3 356 12 17 4 359 9 17 10 357 351 351 350 351 350 339 327 320 317 316 310 312 324 322 312 311 302 291 297 296 290 292 290 288 287 283 283 283 280 280 277 268 262 258 254 253 255 256 252 248 246 246 245 244 244 243 241 239 239 240 239 239 238 237 237 234 232 233 233 231 230 231 235 235 224 219 221 215 211 224 227 211 199 195 196 203
22 25 12 6 18 9 357 3 8 0 0 356 349 346 344 346 340 322 311 313 311 303 304 311 317 314 304 303 300 295 300 299 294 295 295 292 290 288 285 284 283 283 277 267 261 257 254 253 254 255 252 248 247 247 246 246 245 243 241 238 238 238 238 237 236 235 236 235 234 234 231 228 229 232 234 234 227 221 221 219 215 219 221 211 204 202 201 203
24 27 25 26 31 19 14 24 15 2 359 349 343 341 336 337 336 324 312 310 308 301 303 307 309 306 299 298 304 301 299 300 300 301 299 295 292 290 287 285 284 286 282 271 262 255 250 249 249 250 251 249 248 249 250 249 245 240 236 235 236 237 237 237 236 235 235 235 233 230 227 227 231 234 235 234 227 222 221 219 217 221 222 216 210 209 206 203